BEIDOU-3 M12 (C26)

Last updated on Aug. 15, 2020, 5:35 a.m. UTC

1 43603U 18067B   20227.43756635  .00000084  00000-0  00000-0 0  9992
2 43603  54.6102 253.6585 0003947 320.1561 151.3019  1.86231580 13425
UTC
Height (km)
Latitude
Longitude
Inclination
Orbital Period
UTC large
Height (km)
Speed (km/s)
/
Latitude / Longitude
Inclination (degrees)
Orbital Period (minutes)
Azimuth
Elevation
Range (km)
Doppler Factor
iOS Compass Heading
iOS Angle

Next 30 passes for location: Hong Kong

Rise time Rise Azimuth (degrees) Set time Set Azimuth (degrees) Duration Max altitude (degrees)

No matching passes for this satellites